Location: Camps Bay
(33.9517°S, 18.3844°E)
Time: 16:51:15
(UTC+00:00)

Meteor 1-12 Rocket - Pass Details

Date: 18 January 2020
Orbit: 855 x 926 km, 81.2° (Epoch: 25 February)

Event Time Altitude Azimuth Distance (km) Brightness Sun altitude
Rises 01:09:53 0° 189° (S) 3,606 8.1 -26.8°
Reaches altitude 10° 01:12:24 10° 189° (S) 2,655 7.3 -26.5°
Maximum altitude 01:18:29 86° 276° (W) 937 4.3 -25.8°
Enters shadow 01:19:44 59° 359° (N) 1,061 4.4 -25.6°
